This demonstration page uses our WeatherBlox Daily Observations layout. Learn more.

Left ArrowRight Arrow

40.92945, -100.16068

Hourly Observations for July 28, 2019

Temp ( °F °C ) Dew Point ( °F °C ) Humidity (%) Winds ( mph kmh ) Pressure ( in mb ) Visibility ( mi km ) Precip ( " mm )
12:15 am 00:15 Clear 76 24.5 60 15.8 58 58 SSE 14 22 29.87 1012 10 16 N/A
12:35 am 00:35 Clear 76 24.5 60 15.6 58 58 S 12 19 29.87 1012 10 16 N/A
12:55 am 00:55 Partly Cloudy 76 24.5 60 15.5 57 57 S 13 20 29.87 1012 10 16 N/A
1:15 am 01:15 Mostly Cloudy 76 24.5 60 15.5 57 57 S 14 22 29.87 1012 10 16 N/A
1:35 am 01:35 Cloudy 76 24.4 60 15.5 58 58 SSW 12 19 29.88 1012 10 16 N/A
1:55 am 01:55 Cloudy 75 24.1 60 15.8 60 60 W 8 13 29.90 1012 10 16 N/A
2:15 am 02:15 Partly Cloudy 73 23 61 16 65 65 SSW 7 11 29.90 1012 10 16 N/A
2:35 am 02:35 Clear 72 22.1 62 16.4 70 70 S 7 11 29.89 1012 10 16 N/A
2:55 am 02:55 Clear 71 21.4 63 17 76 76 S 6 9 29.88 1012 10 16 N/A
3:15 am 03:15 Clear 70 21.1 63 17.1 78 78 S 6 9 29.88 1012 10 16 N/A
3:35 am 03:35 Partly Cloudy with Light Rain 70 21.1 63 17.1 78 78 SE 5 7 29.86 1011 10 16 N/A
3:55 am 03:55 Partly Cloudy with Light Rain 70 21.2 63 17.1 78 78 ESE 7 11 29.84 1011 10 16 N/A
4:15 am 04:15 Mostly Cloudy 71 21.5 63 17.2 77 77 SE 8 13 29.83 1010 10 16 N/A
4:35 am 04:35 Partly Cloudy 71 21.4 63 17.1 77 77 SE 7 11 29.83 1010 10 16 N/A
4:55 am 04:55 Clear 71 21.4 62 16.9 76 76 SSE 9 15 29.82 1010 10 16 N/A
5:15 am 05:15 Clear 72 22 61 16.3 70 70 S 8 13 29.82 1010 10 16 N/A
5:35 am 05:35 Partly Cloudy 72 22 61 16.1 69 69 SSE 6 9 29.82 1010 10 16 N/A
5:55 am 05:55 Mostly Cloudy 71 21.8 61 16.1 70 70 SE 6 9 29.83 1010 10 16 N/A
6:15 am 06:15 Partly Cloudy 71 21.5 61 16.1 71 71 SE 6 9 29.82 1010 10 16 N/A
6:35 am 06:35 Sunny 70 21.1 61 16 73 73 SE 5 7 29.82 1010 10 16 N/A
6:55 am 06:55 Sunny 70 21 61 16.1 74 74 SE 7 11 29.82 1010 10 16 N/A
7:15 am 07:15 Sunny 70 21.1 61 16 73 73 SE 7 11 29.82 1010 10 16 N/A
7:35 am 07:35 Sunny 69 20.4 61 16.2 77 77 SSE 5 7 29.83 1010 10 16 N/A
7:55 am 07:55 Sunny 70 21 62 16.5 76 76 SSE 5 7 29.83 1010 10 16 N/A
8:15 am 08:15 Sunny 70 21.1 62 16.9 77 77 SSE 6 9 29.82 1010 10 16 N/A
8:35 am 08:35 Sunny 71 21.4 62 16.8 75 75 S 5 7 29.83 1010 10 16 N/A
8:55 am 08:55 Sunny 71 21.6 62 16.7 74 74 S 7 11 29.82 1010 10 16 N/A
9:15 am 09:15 Sunny 72 22.2 62 16.8 72 72 S 7 11 29.81 1010 10 16 N/A
9:35 am 09:35 Sunny 73 22.6 63 17 71 71 S 6 9 29.81 1009 10 16 N/A
9:55 am 09:55 Partly Cloudy 73 23 63 17.3 70 70 S 6 9 29.81 1009 10 16 N/A
10:15 am 10:15 Mostly Cloudy 73 23 64 17.5 71 71 SSW 6 9 29.81 1009 10 16 N/A
10:35 am 10:35 Cloudy 73 23 63 17.4 71 71 S 7 11 29.81 1009 10 16 N/A
10:55 am 10:55 Cloudy 74 23.2 64 17.7 71 71 S 7 11 29.81 1009 10 16 N/A
11:15 am 11:15 Mostly Cloudy 74 23.4 64 17.5 70 70 SSW 6 9 29.81 1010 10 16 N/A
11:35 am 11:35 Partly Cloudy 76 24.2 65 18.3 70 70 SSW 6 9 29.81 1009 10 16 N/A
11:55 am 11:55 Sunny 77 24.9 65 18.3 67 67 SSW 5 7 29.80 1009 10 16 N/A
12:15 pm 12:15 Sunny 77 25 65 18.4 67 67 N N/A 29.80 1009 10 16 N/A
12:35 pm 12:35 Sunny 78 25.4 66 19.1 68 68 S 3 6 29.80 1009 10 16 N/A
12:55 pm 12:55 Sunny 78 25.6 66 18.7 66 66 W 5 7 29.81 1009 10 16 N/A
1:15 pm 13:15 Sunny 79 26 67 19.5 67 67 N N/A 29.80 1009 10 16 N/A
1:35 pm 13:35 Sunny 79 25.9 67 19.7 69 69 WNW 5 7 29.79 1009 10 16 N/A
1:55 pm 13:55 Sunny 80 26.8 68 20 66 66 N 5 7 29.79 1009 10 16 N/A
2:15 pm 14:15 Sunny 80 26.8 69 20.5 68 68 WNW 3 6 29.79 1009 10 16 N/A
2:35 pm 14:35 Sunny 80 26.9 69 20.4 68 68 N N/A 29.78 1009 10 16 N/A
2:55 pm 14:55 Sunny 81 27.4 70 20.9 68 68 N N/A 29.79 1009 10 16 N/A
3:15 pm 15:15 Sunny 82 27.6 69 20.3 64 64 N N/A 29.78 1008 10 16 N/A
3:35 pm 15:35 Sunny 83 28.3 71 21.5 67 67 N N/A 29.78 1009 10 16 N/A
3:55 pm 15:55 Sunny 83 28.5 71 21.4 65 65 N N/A 29.77 1008 10 16 N/A
4:15 pm 16:15 Partly Cloudy 84 29.1 71 21.8 65 65 W 5 7 29.77 1008 10 16 N/A
4:35 pm 16:35 Partly Cloudy 85 29.5 71 21.6 63 63 NW 7 11 29.76 1008 10 16 N/A
4:55 pm 16:55 Partly Cloudy 86 30 71 21.6 61 61 NNW 6 9 29.76 1008 10 16 N/A
5:15 pm 17:15 Sunny 86 30.1 71 21.6 60 60 NNW 5 7 29.76 1008 10 16 N/A
5:35 pm 17:35 Partly Cloudy 84 29 73 22.5 68 68 N N/A 29.77 1008 10 16 N/A
5:55 pm 17:55 Sunny 86 30 71 21.5 60 60 N 3 6 29.76 1008 10 16 N/A
6:15 pm 18:15 Sunny 86 30.1 72 22.3 63 63 N N/A 29.76 1008 10 16 N/A
6:35 pm 18:35 Sunny 86 30 71 21.6 61 61 N 7 11 29.76 1008 10 16 N/A
6:55 pm 18:55 Sunny 85 29.5 70 21.2 61 61 N 8 13 29.76 1008 10 16 N/A
7:15 pm 19:15 Sunny 84 29 72 22 66 66 N 5 7 29.78 1008 10 16 N/A
7:35 pm 19:35 Sunny 83 28.4 71 21.5 66 66 N 6 9 29.79 1009 10 16 N/A
7:55 pm 19:55 Sunny 82 27.6 71 21.6 70 70 N 5 7 29.81 1009 10 16 N/A
8:15 pm 20:15 Sunny 80 26.6 72 22.2 77 77 N 3 6 29.82 1010 10 16 N/A
8:35 pm 20:35 Sunny 78 25.5 73 22.5 84 84 N 5 7 29.83 1010 10 16 N/A
8:55 pm 20:55 Sunny 76 24.2 72 22.4 90 90 N 3 6 29.85 1011 10 16 N/A
9:15 pm 21:15 Clear 74 23.6 71 21.7 89 89 N 5 7 29.85 1011 10 16 N/A
9:35 pm 21:35 Clear 72 22.4 69 20.6 90 90 N 7 11 29.87 1012 10 16 N/A
9:55 pm 21:55 Clear 71 21.9 68 20.1 90 90 N 6 9 29.89 1012 10 16 N/A
10:15 pm 22:15 Clear 70 21.1 68 20 93 93 NNW 7 11 29.90 1013 10 16 N/A
10:35 pm 22:35 Clear 69 20.6 68 20 96 96 N 5 7 29.92 1013 10 16 N/A
10:55 pm 22:55 Clear 69 20.3 67 19.6 96 96 NNW 6 9 29.93 1014 10 16 N/A
11:15 pm 23:15 Clear 69 20.3 67 19.4 95 95 NNW 7 11 29.94 1014 10 16 N/A
11:35 pm 23:35 Clear 68 20 67 19.2 95 95 NNW 6 9 29.95 1014 10 16 N/A
11:55 pm 23:55 Clear 67 19.7 66 18.9 95 95 NNW 6 9 29.96 1015 10 16 N/A

Powered by AerisWeather